This is the latest recevied weather packets stored in our database for station/object GW4288. If no packets are shown the sender has not sent any weather packets the latest 10 day(s).
| Time | Temp. | Humidity | Pressure | Rain* | Wind** | Luminosity | Snow |
|---|---|---|---|---|---|---|---|
| 1788258124 | 20.56° C | 65% | 1021.7 hPa | 0 mm | - | 338 W/m² | - |
| 1788258017 | 20.56° C | 65% | 1021.7 hPa | 0 mm | - | 214 W/m² | - |
| 1788257884 | 21.11° C | 65% | 1021.8 hPa | 0 mm | - | 265 W/m² | - |
| 1788257767 | 21.67° C | 64% | 1021.8 hPa | 0 mm | - | 243 W/m² | - |
| 1788257647 | 21.11° C | 64% | 1021.7 hPa | 0 mm | - | 458 W/m² | - |
| 1788257526 | 21.11° C | 65% | 1021.6 hPa | 0 mm | - | 472 W/m² | - |
| 1788257406 | 20.56° C | 66% | 1021.9 hPa | 0 mm | - | 549 W/m² | - |
| 1788257358 | 20.56° C | 66% | 1021.8 hPa | 0 mm | - | 327 W/m² | - |
| 1788257179 | 20° C | 67% | 1021.8 hPa | 0 mm | - | 261 W/m² | - |
| 1788257047 | 20° C | 68% | 1021.9 hPa | 0 mm | - | 543 W/m² | - |
| 1788256925 | 20° C | 68% | 1021.8 hPa | 0 mm | - | 180 W/m² | - |
| 1788256806 | 20° C | 68% | 1021.7 hPa | 0 mm | - | 142 W/m² | - |
| 1788256687 | 20° C | 68% | 1021.8 hPa | 0 mm | - | 140 W/m² | - |
| 1788256566 | 20.56° C | 67% | 1021.6 hPa | 0 mm | - | 150 W/m² | - |
| 1788256469 | 20.56° C | 66% | 1021.6 hPa | 0 mm | - | 168 W/m² | - |
| 1788256450 | 20° C | 67% | 1021.7 hPa | 0 mm | - | 171 W/m² | - |
| 1788256202 | 19.44° C | 68% | 1021.8 hPa | 0 mm | - | 443 W/m² | - |
| 1788256095 | 19.44° C | 67% | 1021.7 hPa | 0 mm | - | 352 W/m² | - |
| 1788255962 | 20° C | 67% | 1021.8 hPa | 0 mm | - | 182 W/m² | - |
| 1788255842 | 21.11° C | 65% | 1021.7 hPa | 0 mm | - | 178 W/m² | - |
| 1788255723 | 20.56° C | 66% | 1021.7 hPa | 0 mm | - | 556 W/m² | - |
| 1788255603 | 20° C | 66% | 1021.7 hPa | 0 mm | - | 540 W/m² | - |
| 1788255483 | 20° C | 68% | 1021.9 hPa | 0 mm | - | 495 W/m² | - |
| 1788255362 | 19.44° C | 68% | 1021.8 hPa | 0 mm | - | 419 W/m² | - |
| 1788255266 | 18.89° C | 69% | 1021.8 hPa | 0 mm | - | 418 W/m² | - |
* Rain latest hour (hover to see other rain measurements)
** Current wind speed in m/s (hover to see current wind gust speed)